Location: Breezy Point Observatory
(38.9725°N, 81.7133°W)
Time: 05:42:40
(UTC-05:00)

Hubble Space Telescope - Visible Passes

Search period start: 11 February 2016 00:00
Search period end: 21 February 2016 00:00
Orbit: 540 x 543 km, 28.5° (Epoch: 10 February)

Date Brightness Start Highest point End Pass type
(mag) Time Alt. Az. Time Alt. Az. Time Alt. Az.
11 Feb 3.3 20:07:58 10° SSW 20:08:45 12° SSW 20:08:45 12° SSW visible
12 Feb 3.0 19:58:08 10° SSW 19:59:58 16° S 19:59:58 16° S visible
13 Feb 2.8 19:48:24 10° SW 19:51:10 17° S 19:51:10 17° S visible
14 Feb 2.7 19:38:45 10° SW 19:41:40 18° S 19:42:21 18° SSE visible
15 Feb 2.7 19:29:09 10° SW 19:32:06 19° S 19:33:31 16° SSE visible
16 Feb 2.8 19:19:35 10° SW 19:22:34 19° S 19:24:42 13° SE visible
17 Feb 2.9 19:10:04 10° SW 19:13:00 19° S 19:15:53 10° SE visible
18 Feb 3.0 19:00:36 10° SW 19:03:26 18° S 19:06:17 10° SE visible
19 Feb 3.1 18:51:11 10° SW 18:53:52 17° S 18:56:33 10° SSE visible
20 Feb 3.3 18:41:51 10° SW 18:44:18 15° S 18:46:44 10° SSE visible
